Location: Bosdarros
(43.2167°N, 0.3667°W)
Time: 15:27:33
(UTC+00:00)

Meteor 2-3 Rocket - Pass Details

Date: 22 April 2021
Orbit: 841 x 886 km, 81.2° (Epoch: 13 May)

Event Time Altitude Azimuth Distance (km) Brightness Sun altitude
Rises 20:06:26 0° 355° (N) 3,482 7.4 -13.0°
Reaches altitude 10° 20:09:03 10° 3° (N) 2,533 6.6 -13.4°
Maximum altitude 20:14:29 42° 73° (ENE) 1,224 4.2 -14.3°
Enters shadow 20:17:48 21° 132° (SE) 1,818 4.8 -14.8°
